Home   Weather   Swansea   Past weeks
Flag for United Kingdom

Past Weather in Swansea, Wales, United Kingdom — Yesterday and Last 2 Weeks

Now
51 °F

Cool.


Feels Like: 47 °F
Forecast: N/A
Wind: 13 mph from Northwest

Location: Mumbles

Current Time: Mar 24, 2019 at 5:56:17 pm

Latest Report: Mar 24, 2019 at 5:00 pm


Visibility: N/A

Pressure: 30.49 "Hg

Humidity: 53%

Dew Point: 35 °F

Location of SwanseaLocation

Past Weather in Swansea — Graph

°F

Swansea Temperature Yesterday

Maximum temperature yesterday: 52 °F (at 4:00 pm)
Minimum temperature yesterday: 46 °F (at 6:00 am)
Average temperature yesterday: 49 °F

High & Low Weather Summary for the Past Weeks

 TemperatureHumidityPressure
High53 °F (Mar 19, 11:00 am)100% (Mar 19, 10:00 pm)30.58 "Hg (Mar 19, 10:00 pm)
Low40 °F (Mar 17, 7:00 am)46% (Mar 24, 2:00 pm)29.35 "Hg (Mar 16, 4:00 pm)
Average47 °F85%30.12 "Hg
* Reported Mar 9 4:00 pm — Mar 24 4:00 pm, Swansea. Weather by CustomWeather, © 2019

Note: Actual official high and low records may vary slightly from our data, if they occured in-between our weather recording intervals... More about our weather records

Advertising

Swansea Weather History for the Previous 24 Hours

Scroll right to see more
 ConditionsComfort  
Time TempWeatherWind HumidityBarometerVisibility
4:00 pm
Sun, Mar 24
52 °FCool.15 mph50%30.49 "HgN/A
3:00 pm53 °FCool.13 mph48%30.50 "HgN/A
2:00 pm52 °FCool.14 mph46%30.50 "HgN/A
1:00 pm52 °FCool.10 mph49%30.52 "HgN/A
12:00 pm52 °FCool.12 mph55%30.53 "HgN/A
11:00 am50 °FCool.9 mph56%30.53 "HgN/A
10:00 am48 °FCool.10 mph65%30.54 "HgN/A
9:00 am46 °FCool.9 mph74%30.53 "HgN/A
8:00 am44 °FQuite cool.9 mph78%30.53 "HgN/A
7:00 am44 °FQuite cool.7 mph79%30.52 "HgN/A
6:00 am44 °FQuite cool.9 mph75%30.51 "HgN/A
5:00 am44 °FQuite cool.7 mph76%30.49 "HgN/A
4:00 am46 °FCool.5 mph74%30.50 "HgN/A
3:00 am46 °FCool.9 mph76%30.49 "HgN/A
2:00 am47 °FCool.7 mph74%30.50 "HgN/A
11:00 pm
Sat, Mar 23
47 °FCool.10 mph72%30.54 "HgN/A
10:00 pm48 °FCool.9 mph70%30.53 "HgN/A
9:00 pm48 °FCool.9 mph73%30.52 "HgN/A
8:00 pm49 °FCool.7 mph72%30.52 "HgN/A
6:00 pm51 °FCool.2 mph60%30.50 "HgN/A
5:00 pm52 °FCool.2 mph58%30.50 "HgN/A
Weather by CustomWeather, © 2019

See weather overview